GFSSE_con_3kmhel_024.txt.gz
Helicity
44 11 39 19 14 20 32 32 46 62 75 61 62 73 71 87 105 113 107 90 82 81 82 81 70 67 57 57 65 71 64 54 45 39 28 36 54 64 71 90 93 66 33
104 48 52 36 24 26 38 56 71 78 75 75 72 78 79 104 103 92 92 85 89 101 99 96 85 74 59 51 57 63 62 57 53 35 19 8 46 32 78 77 113 86 71
55 50 55 59 51 57 63 76 60 56 61 76 89 88 84 83 85 88 90 89 91 93 89 88 77 60 52 53 57 66 65 56 44 33 18 7 86 89 27 54 72 82 75
112 46 65 80 81 88 75 68 66 66 67 74 75 74 77 80 78 81 80 74 71 76 73 77 65 66 72 71 70 64 57 43 28 22 18 63 52 87 61 43 62 69 73
79 63 73 87 76 70 70 71 70 72 83 83 70 60 51 51 60 65 68 69 76 84 87 73 66 62 58 63 67 67 60 44 29 24 25 64 20 33 -5 54 62 51 67
78 58 52 52 57 74 81 88 92 97 93 100 98 85 75 71 66 64 72 76 75 66 63 57 58 59 63 63 60 51 40 26 20 20 38 55 49 220 94 77 83 90 78
62 36 38 56 78 85 83 71 66 67 60 62 64 61 63 63 60 65 68 68 72 73 62 59 55 52 49 40 34 26 19 15 8 10 37 58 25 112 -24 60 82 92 67
61 43 47 64 64 58 56 45 47 40 35 39 39 40 44 44 53 63 67 72 72 68 65 63 54 48 41 34 26 15 7 3 5 11 76 114 89 61 58 54 62 74 80
52 60 40 41 41 39 22 38 42 35 34 36 32 29 36 39 46 52 66 71 68 70 69 64 56 47 38 28 25 23 14 4 6 15 82 92 114 105 70 81 91 85 75
45 33 40 38 -5 10 12 39 34 33 31 22 16 18 14 11 11 40 54 58 59 56 52 47 38 30 14 14 3 -0 1 4 18 65 145 143 125 98 63 66 72 80 72
42 61 37 108 70 59 35 13 17 26 20 20 7 19 32 4 12 38 50 53 37 26 32 26 12 9 7 -5 -7 -12 7 63 69 39 120 154 140 104 82 63 58 65 81
60 19 61 46 49 -5 34 54 7 12 2 -3 16 23 36 47 59 35 82 61 33 15 31 31 6 13 28 59 83 34 59 59 62 57 173 161 116 93 81 67 57 59 66
46 20 122 92 19 -20 13 -15 24 32 46 42 71 46 47 20 52 45 71 55 53 54 45 40 67 57 43 67 47 57 50 48 55 64 148 156 124 98 91 67 56 51 56
95 105 146 60 32 2 -12 6 16 23 59 51 68 76 49 42 69 52 56 42 17 31 38 39 51 56 65 87 79 78 64 58 50 44 109 139 125 92 89 71 59 57 54
72 98 129 130 45 32 21 30 31 31 67 72 92 97 66 47 78 65 58 46 34 32 48 64 84 64 64 81 98 132 112 74 61 63 118 125 123 98 87 76 72 68 65
69 90 117 175 67 64 33 90 55 57 87 59 123 121 89 78 84 50 66 55 48 54 64 72 76 86 84 87 78 73 131 122 83 65 105 155 132 130 110 103 89 82 84
37 56 120 143 143 137 88 96 72 139 116 111 136 107 102 89 87 85 72 65 53 78 85 77 68 100 102 105 120 128 131 160 157 85 78 138 153 133 116 103 105 111 101
30 157 -2 86 153 170 69 150 108 150 136 107 117 122 121 135 111 114 108 113 108 102 98 87 95 89 111 115 114 111 126 155 175 172 157 136 170 172 150 125 117 112 100
101 135 134 102 184 145 88 148 173 156 123 83 167 144 207 248 172 166 153 147 142 153 141 113 115 126 138 130 117 115 122 158 180 186 197 181 182 160 262 178 160 141 132
150 134 114 193 269 243 224 160 118 126 95 89 132 161 246 192 212 219 161 139 129 127 141 144 143 143 154 137 122 112 104 107 118 187 206 236 269 233 193 297 278 230 169
154 208 279 231 179 139 146 178 195 240 241 239 212 209 266 183 190 205 171 158 163 171 200 220 193 176 162 145 137 127 115 109 124 146 178 255 259 288 315 329 306 271 214
209 182 174 164 185 185 224 174 145 153 134 136 112 157 196 112 205 197 210 182 163 178 170 146 169 192 180 142 147 128 148 108 108 112 135 196 223 265 322 325 325 292 258
167 147 138 151 159 166 204 220 168 125 142 154 200 193 166 268 223 196 173 172 182 175 165 139 136 141 179 149 156 153 143 165 142 137 129 167 145 130 243 182 267 285 262
114 132 130 163 190 171 144 154 146 134 176 193 207 213 205 212 174 230 190 170 162 171 150 120 175 235 264 217 167 253 251 246 138 120 138 176 65 161 229 146 198 284 285
100 95 109 114 104 95 74 89 90 124 124 142 166 155 160 180 194 173 162 158 165 171 155 273 328 306 230 162 110 64 133 166 199 216 117 151 174 157 147 295 309 243 392
-8 24 93 107 139 135 134 102 69 58 79 128 127 162 193 181 141 117 109 120 113 159 241 243 200 184 114 130 153 152 110 69 99 199 191 97 51 91 113 82 191 276 270

GFSSE_con_3kmhel_030.txt.gz
Helicity
11 -2 42 43 52 67 63 55 55 54 47 43 57 58 61 62 62 65 69 80 85 92 92 80 88 89 79 69 66 63 61 67 71 90 82 69 67 67 68 79 60 46 31
50 41 54 54 64 65 62 71 78 69 74 66 66 58 56 68 76 80 85 86 81 80 80 80 74 72 76 71 65 61 65 67 77 97 86 71 75 67 56 57 70 37 30
86 74 64 52 64 65 77 98 107 97 87 81 79 77 83 91 85 77 71 66 66 64 62 67 67 62 59 57 57 60 57 70 77 85 100 92 62 55 59 112 45 37 25
110 77 63 66 76 72 89 86 85 87 85 77 77 87 88 73 62 58 59 53 57 59 57 56 51 45 47 46 50 50 51 53 68 109 105 107 71 46 43 -15 27 61 38
105 75 64 71 78 86 92 101 100 94 84 87 86 75 62 57 50 43 42 41 43 42 42 42 36 33 32 31 29 31 35 44 65 84 100 84 56 30 36 41 38 17 28
67 57 59 66 63 73 86 83 78 84 80 66 58 55 57 51 43 38 40 42 43 36 27 26 22 24 18 18 19 18 17 25 30 50 55 48 64 57 57 40 57 10 29
46 27 20 32 47 64 68 67 66 59 47 45 45 45 46 39 40 41 39 35 35 34 31 28 23 23 21 19 18 15 25 37 37 46 29 28 49 42 34 27 39 23 42
8 -11 3 27 40 41 42 40 50 48 45 42 32 31 32 33 32 23 23 26 27 27 26 25 22 21 24 26 26 29 39 49 49 55 39 41 31 35 36 35 37 61 43
-21 -22 -17 -17 -2 25 32 50 43 25 22 20 14 18 10 1 -4 5 7 9 10 7 11 5 3 6 17 21 29 37 50 72 84 78 44 41 21 31 42 58 49 51 62
-39 -16 -35 -43 -25 -9 1 4 -12 -13 3 2 5 8 4 -2 -11 -16 -4 -12 -10 -11 -20 -27 -26 -25 -8 4 10 13 32 55 74 64 67 58 40 33 38 36 34 39 41
0 -22 -45 -31 -22 -26 -42 -49 -30 -29 -14 -4 -3 9 3 -26 -7 -2 -8 -15 -7 -13 -34 -43 -41 -36 -16 -10 -8 0 18 29 25 30 27 31 28 18 22 25 23 35 49
-6 -29 -15 -17 -21 -14 -21 -22 -15 -36 -34 -21 -9 13 3 -6 3 6 -8 -9 6 2 -26 -34 -31 -23 -3 28 37 21 38 29 32 23 10 -9 14 15 19 18 14 12 35
7 1 -9 5 -49 5 1 -5 -12 -9 -29 -15 -2 8 15 21 13 4 3 4 4 -2 -1 -11 -12 5 11 33 42 59 55 61 62 54 36 15 9 3 8 12 4 2 26
78 77 31 19 -15 1 12 32 24 33 29 17 10 40 76 87 76 58 54 38 35 31 17 16 21 24 31 35 36 33 47 70 80 78 62 45 38 20 2 -2 1 -4 13
186 155 71 91 56 77 51 39 52 63 62 41 71 89 142 133 115 119 111 85 67 58 62 56 51 43 34 24 16 27 41 55 76 101 109 70 68 67 43 21 12 5 10
203 205 137 104 119 101 68 40 110 134 136 114 124 110 143 146 147 160 155 128 105 96 86 75 70 75 59 49 31 31 41 63 67 89 126 120 91 92 72 50 36 26 18
265 270 218 249 114 90 170 93 71 111 150 134 116 120 129 141 156 156 150 137 116 120 119 102 101 105 85 59 48 49 67 76 67 51 93 136 141 121 110 83 74 53 40
308 280 335 256 147 64 79 110 62 94 118 114 126 148 157 162 162 160 142 138 139 152 136 124 101 68 64 53 39 46 82 96 89 75 75 79 133 177 137 103 89 65 60
310 344 296 175 87 39 74 91 88 137 148 161 178 177 194 204 204 198 194 181 183 201 174 125 117 71 67 79 76 75 76 80 89 93 101 96 106 161 210 163 117 95 76
365 344 316 222 145 89 146 154 185 189 234 244 330 356 336 334 338 316 298 273 284 224 153 149 112 94 83 85 86 92 90 88 81 89 93 92 108 91 126 181 163 142 106
298 267 211 199 159 152 162 172 214 289 318 350 361 345 338 332 323 317 274 275 241 196 159 124 89 69 45 51 39 44 39 70 117 129 124 122 141 171 182 174 154 143 148
252 161 128 80 124 150 140 155 158 144 164 149 169 226 237 246 234 210 209 217 203 185 192 162 114 78 88 78 52 39 68 80 99 140 122 60 77 105 177 192 157 167 155
195 140 82 76 70 92 102 124 147 133 127 131 125 88 83 78 79 102 116 115 111 104 114 108 125 134 131 124 102 100 94 92 16 -8 102 81 70 31 44 81 125 124 123
146 122 73 36 21 16 47 63 68 51 58 65 55 52 80 74 57 51 26 20 53 73 107 89 101 105 106 130 113 148 126 102 72 31 71 101 79 80 63 61 48 87 124
40 42 28 44 40 49 65 51 50 67 113 166 151 149 152 134 113 84 25 50 79 67 69 72 78 92 82 94 93 92 129 121 109 118 78 28 82 67 63 99 107 111 93
13 22 26 54 70 107 134 155 188 225 218 196 181 149 118 91 52 11 56 80 61 65 73 85 107 126 115 99 119 105 100 104 79 71 84 79 53 44 47 73 108 135 108

GFSSE_con_3kmhel_033.txt.gz
Helicity
-34 -18 12 23 37 49 44 34 36 50 71 84 98 104 113 122 120 106 97 87 80 91 97 102 97 99 93 89 87 83 86 91 76 71 69 50 49 48 68 62 44 47 50
26 -4 20 32 50 54 46 61 87 86 88 92 90 90 94 89 79 76 75 72 75 82 91 94 91 89 85 84 82 79 84 94 86 83 81 50 43 51 60 64 41 42 40
45 24 30 47 46 56 80 96 99 93 89 90 93 81 76 78 78 78 77 76 71 69 66 70 70 65 60 58 66 72 84 92 92 90 78 53 24 31 30 22 54 23 31
31 31 37 44 67 86 99 101 94 93 94 85 75 82 87 79 71 62 55 49 44 40 38 42 39 39 33 34 43 46 59 69 62 84 63 38 25 16 7 24 33 15 28
26 37 60 74 81 81 79 78 89 96 94 88 78 69 56 46 36 32 33 31 30 34 34 35 33 34 31 24 28 35 36 44 37 28 30 13 15 9 15 6 5 9 48
43 48 67 63 68 64 74 93 96 85 63 48 36 39 32 28 27 27 20 19 23 29 31 36 39 38 35 39 42 51 53 53 42 27 12 -1 9 -7 -7 -29 -16 12 10
37 40 44 53 44 48 70 85 64 41 33 36 29 20 25 26 18 12 10 12 16 20 25 26 28 32 35 38 48 55 57 57 45 46 44 30 14 0 -3 -2 -15 -11 -7
42 24 18 17 25 57 68 31 24 25 25 19 14 15 14 8 -1 4 6 5 6 7 4 4 8 15 21 29 44 53 58 63 63 63 56 52 20 -1 1 6 6 -2 -14
-4 -4 -13 0 37 43 14 15 19 17 14 10 8 -4 -10 -14 -6 -1 0 -6 -6 -9 -22 -14 -10 0 5 9 18 31 49 45 57 59 62 68 40 27 11 32 27 12 19
-12 -26 -20 -4 4 -16 -14 4 11 1 2 -10 -20 -23 -18 -12 -11 -12 -12 -12 -13 -23 -36 -37 -38 -31 -24 -16 -7 2 25 33 35 33 38 33 35 41 42 46 56 49 28
-19 -29 -31 -36 -43 -34 -20 -22 -18 -27 -25 -26 -21 -14 -10 -13 -9 -5 -13 -16 -12 -23 -35 -41 -42 -48 -48 -39 -22 -10 1 17 20 18 18 14 16 14 30 47 56 40 31
-36 -60 -77 -54 -44 -22 -28 -46 -38 -42 -30 -19 -12 4 0 0 4 1 -12 -14 -10 -26 -43 -44 -35 -28 -22 0 10 0 20 20 31 31 31 1 4 6 11 27 35 28 22
-54 -68 -80 -62 -35 -9 -25 -38 -36 -21 -15 -7 10 20 12 15 8 9 17 27 34 27 32 23 16 20 17 23 27 35 30 31 48 62 58 35 21 11 3 8 18 23 28
-16 -20 -58 -67 -12 -50 -34 -8 -2 22 25 18 27 35 48 59 51 49 62 67 77 65 72 70 62 52 40 35 30 26 24 35 54 65 61 39 47 38 27 13 14 17 19
34 5 -15 3 4 -19 -12 17 27 37 46 50 51 66 81 98 110 101 88 95 97 93 115 107 84 66 49 43 44 23 15 17 26 58 76 47 42 35 42 43 36 26 27
109 69 66 70 14 19 33 70 44 49 59 67 76 82 82 97 136 132 131 142 145 147 136 133 125 110 89 64 49 34 41 42 50 66 90 100 84 77 47 39 47 51 48
166 125 135 128 54 81 85 83 58 70 92 74 90 111 121 122 153 172 180 200 190 167 172 172 161 144 109 79 50 51 52 60 68 71 74 82 87 88 94 100 47 44 64
271 229 184 157 200 112 94 106 116 142 153 122 139 162 196 222 241 281 261 249 226 202 172 149 131 103 82 65 42 52 79 89 95 106 119 117 108 113 115 106 93 65 57
353 389 382 255 224 114 95 114 189 246 226 245 281 325 381 404 366 327 298 264 225 175 146 146 135 103 81 66 64 76 89 94 105 133 156 145 116 123 135 171 172 146 94
478 501 395 210 214 171 147 289 259 252 295 320 349 355 336 318 294 242 224 181 140 143 165 141 114 107 87 82 66 70 88 114 161 183 170 158 152 139 147 175 168 170 200
335 252 180 163 132 168 206 157 205 212 217 226 207 198 190 157 151 136 146 175 147 131 108 102 87 97 81 63 42 57 26 58 135 162 142 124 148 153 151 141 145 156 173
201 159 198 188 140 97 89 88 109 128 122 85 73 93 92 99 103 94 79 68 61 79 108 121 128 129 130 144 118 99 100 75 82 82 68 89 83 56 89 94 129 136 137
81 89 95 60 63 59 65 68 72 78 77 83 112 140 150 137 124 107 78 49 45 61 92 108 144 187 184 153 146 137 163 140 90 67 51 50 61 79 77 57 76 107 132
26 17 3 -12 0 20 16 39 46 59 68 91 106 89 80 91 91 88 86 75 75 75 93 105 143 144 148 150 122 139 145 138 83 52 111 121 111 81 103 127 113 115 136
7 12 -11 19 17 -4 10 32 53 83 123 137 132 131 134 118 110 72 60 47 52 31 31 65 80 94 80 64 57 62 71 90 95 72 67 43 72 45 51 82 82 101 124
39 35 58 84 47 67 112 125 141 143 128 153 141 135 118 111 101 70 74 66 49 44 44 56 73 97 108 98 107 125 135 119 116 97 106 101 55 25 31 57 77 96 98

GFSSE_con_3kmhel_039.txt.gz
Helicity
6 -3 -18 -14 8 21 37 42 64 92 95 106 111 107 106 114 121 111 98 80 79 77 82 81 86 84 79 79 75 70 66 65 55 53 56 49 46 51 57 55 33 39 36
15 -6 -21 -16 12 35 53 66 91 102 107 106 99 98 102 117 115 94 71 56 44 43 47 55 64 67 64 63 64 70 75 64 51 48 55 45 50 64 59 53 47 50 42
27 -8 -14 -19 17 49 58 94 108 104 95 96 87 92 100 74 54 42 42 34 32 35 41 45 49 51 50 45 42 42 39 39 36 38 38 45 48 79 67 68 55 52 47
31 -6 -13 -10 15 37 66 86 88 95 89 82 87 71 43 31 26 29 28 25 26 31 36 43 46 47 45 45 45 43 38 37 29 14 24 29 26 42 54 75 55 48 61
2 -13 -12 -5 18 41 63 73 88 89 81 59 33 23 13 12 16 18 19 15 21 28 31 36 40 42 41 44 46 49 47 42 35 24 29 26 24 25 34 43 55 52 43
-10 -19 -12 -1 26 51 55 79 83 54 32 11 9 1 5 4 4 5 9 12 18 24 29 32 35 35 33 31 36 39 37 37 22 43 37 40 39 54 54 45 43 64 67
-19 -15 -14 3 29 46 65 66 36 22 12 3 -3 -7 -9 -5 -0 5 7 11 18 24 31 34 36 40 38 35 41 42 42 35 37 44 54 54 46 49 51 63 63 50 67
-2 -11 -11 2 30 52 49 31 18 18 -1 -6 -11 -16 -13 -5 -1 4 7 11 20 30 34 37 34 30 28 29 24 23 30 27 33 44 49 49 61 59 51 46 49 58 55
-16 -13 -16 4 32 36 27 19 10 1 -10 -18 -18 -19 -13 -4 6 12 18 24 23 25 30 32 32 34 27 18 11 4 -0 5 9 15 25 33 51 48 50 54 50 55 54
-35 -28 -14 18 23 15 6 1 -6 -10 -18 -15 -17 -12 -6 8 21 26 26 30 28 21 26 24 24 26 25 26 21 11 2 -8 12 2 2 12 29 44 43 42 42 47 52
-48 -31 4 7 3 -5 -10 -14 -15 -19 -13 -13 -8 -2 10 13 18 25 30 29 35 43 43 45 44 45 43 42 39 29 8 14 8 13 18 32 26 25 25 25 30 37 43
-17 -17 -11 -11 -22 -27 -21 -25 -34 -26 -22 -19 -8 7 17 25 24 20 25 33 52 75 87 84 91 84 70 56 44 37 27 27 25 21 23 29 34 34 28 21 17 23 30
-0 -7 -22 -34 -28 -24 -27 -35 -30 -25 -17 -9 -0 9 27 32 30 32 42 61 79 102 105 108 103 97 105 90 75 57 39 30 31 30 32 53 64 66 64 51 35 28 20
-20 -19 -35 -28 -13 -15 -15 -16 -15 -14 -10 -5 9 26 39 47 51 81 100 113 116 117 128 122 117 116 121 112 101 80 59 43 28 20 25 48 73 76 80 85 91 86 58
-34 -30 -33 -20 -13 -5 -0 -5 -11 -5 4 14 31 47 59 63 105 130 151 151 142 129 132 140 139 133 130 120 110 96 79 69 51 24 15 45 97 122 125 125 129 125 116
-23 -0 11 33 24 26 14 7 -0 -0 7 19 41 69 108 111 127 140 141 155 157 148 142 139 135 130 126 117 107 101 91 76 62 52 41 56 134 180 189 190 187 180 168
-2 62 118 144 98 109 96 62 14 27 42 81 124 132 134 125 138 149 152 159 166 163 161 147 146 135 133 126 106 103 97 103 92 75 82 110 127 166 207 228 226 206 194
51 125 216 278 274 247 212 203 -23 -86 -33 26 64 93 94 113 127 155 165 188 187 168 155 151 140 127 118 108 104 109 106 110 88 134 149 148 151 144 148 207 220 213 211
109 187 289 376 438 401 273 149 -4 27 35 48 36 67 88 127 154 177 184 174 166 157 150 133 128 130 143 163 165 165 155 149 150 177 179 150 147 147 153 180 195 173 194
226 340 383 415 413 442 94 41 3 36 29 36 83 112 135 154 164 146 145 155 144 133 130 122 121 128 124 133 124 129 127 118 163 186 195 180 174 147 143 140 132 141 177
218 213 241 252 130 100 30 -17 3 23 63 98 112 128 129 127 146 152 141 122 88 85 75 68 69 89 102 100 64 99 73 51 102 184 196 179 172 168 150 149 133 129 125
74 99 84 55 30 -27 -43 -46 -3 32 42 84 101 119 123 131 125 115 86 69 65 69 71 69 67 62 64 84 119 102 137 115 146 190 162 174 170 158 145 148 130 133 141
1 -20 -33 -43 -63 -46 -36 18 58 78 90 93 127 145 148 151 149 129 109 95 90 92 104 94 84 92 116 115 139 168 209 240 240 198 193 134 135 89 74 92 89 86 90
-0 -32 -20 -27 -11 8 34 28 49 53 77 124 156 159 167 159 131 111 110 116 120 110 96 89 75 77 92 148 135 161 167 171 163 163 112 78 58 76 92 87 66 78 93
31 2 8 45 50 66 49 76 86 110 127 141 151 159 139 119 107 113 117 117 110 109 90 58 67 82 117 135 149 172 165 161 136 143 104 115 88 49 47 90 90 78 86
34 11 7 77 92 83 93 115 126 127 126 156 159 146 132 128 117 106 93 91 94 100 107 121 125 102 94 108 123 125 118 132 132 114 134 101 98 51 78 74 73 85 67

GFSSE_con_3kmhel_042.txt.gz
Helicity
22 32 -18 -10 -8 3 27 50 56 90 105 94 88 92 90 88 89 87 70 56 56 55 47 46 47 47 44 41 41 42 48 46 48 51 44 41 71 88 81 81 84 50 53
37 26 -7 -2 -10 0 28 46 80 96 90 91 92 82 78 81 67 47 41 41 39 48 49 44 42 41 39 34 27 23 23 23 30 38 24 9 64 86 92 94 96 68 58
41 35 9 -6 4 5 39 64 75 81 83 78 66 67 74 56 36 32 30 33 40 47 47 45 43 43 43 43 39 34 35 29 21 -3 6 25 74 77 80 82 79 78 73
40 21 11 -2 15 21 41 66 76 72 68 56 57 59 46 37 36 28 26 27 32 39 40 40 42 45 44 42 42 39 39 36 23 2 16 26 39 58 72 72 51 58 76
38 8 20 8 13 31 54 60 69 66 54 48 42 34 32 33 27 16 17 18 24 33 36 40 45 46 46 47 51 54 51 39 9 10 51 48 32 36 52 70 52 51 70
16 -3 13 -1 22 52 50 56 56 53 43 34 24 22 25 19 13 14 15 16 21 27 30 33 33 36 36 36 38 37 41 33 5 56 55 47 86 70 47 47 46 47 45
-6 12 5 -1 26 33 47 49 37 28 24 19 11 10 11 12 13 15 14 17 26 33 41 38 34 30 27 23 21 20 15 -1 25 44 51 54 69 77 68 56 49 58 60
-13 -12 5 9 12 28 43 41 26 25 12 7 4 4 8 9 12 13 17 21 28 36 38 37 29 22 20 16 16 12 2 -14 8 23 27 43 57 66 62 54 48 50 57
-14 9 4 8 13 36 36 27 23 9 4 -2 2 8 12 19 16 25 27 33 41 38 43 39 37 31 27 30 25 14 -3 -28 -1 12 17 38 46 47 48 51 52 51 50
-5 6 18 9 13 14 22 18 4 -3 -6 4 9 13 19 26 27 25 29 42 42 47 50 45 52 54 57 53 43 25 -12 -51 19 15 24 40 41 35 32 33 40 40 42
8 11 12 19 26 26 14 9 1 -2 5 7 9 10 4 15 19 23 56 48 59 66 64 64 74 76 50 71 67 40 -10 36 13 24 32 50 42 42 40 36 36 33 31
3 14 30 45 43 21 9 2 -2 -1 -2 1 5 9 14 19 28 34 57 57 69 67 82 84 82 63 43 66 77 46 64 39 27 18 47 57 41 43 44 43 42 38 38
17 44 66 53 24 15 16 -2 -1 -2 0 10 20 28 39 35 38 46 57 60 60 64 64 67 77 100 106 91 90 80 73 46 55 37 72 74 49 42 43 50 50 53 59
26 40 27 24 20 20 3 10 10 9 15 23 40 37 38 37 48 57 70 63 58 75 81 89 114 123 115 103 90 78 67 50 61 35 58 120 68 64 72 87 86 85 85
1 16 18 15 17 16 22 21 28 27 23 42 42 54 52 51 67 75 87 83 94 97 114 120 120 115 112 106 101 86 70 50 42 40 48 150 105 93 121 140 151 146 131
-2 15 20 29 32 42 60 71 49 31 35 40 65 65 61 106 100 97 108 119 132 150 163 157 152 135 127 121 102 99 75 69 88 100 98 98 118 105 144 171 175 176 175
21 51 59 80 75 84 100 99 31 -39 0 29 59 41 42 57 85 95 126 156 184 175 171 172 154 152 132 132 106 110 112 104 123 125 102 128 139 90 109 153 173 174 175
66 78 142 164 180 155 180 171 186 5 -9 25 12 49 63 95 123 132 172 197 182 173 158 147 133 128 131 136 135 122 132 138 155 125 126 148 171 152 128 188 188 188 179
88 131 179 225 280 323 357 349 150 -95 -12 14 30 61 83 110 142 164 165 162 142 136 132 118 119 119 115 130 133 126 124 134 133 149 148 165 168 186 184 221 140 117 180
124 178 198 256 325 382 202 87 77 19 37 54 55 75 93 115 133 141 146 140 121 122 112 91 81 84 72 76 64 48 71 58 79 134 153 163 159 166 155 176 187 195 127
199 193 187 172 156 130 -2 22 28 45 31 37 44 61 84 106 126 155 145 125 93 91 73 61 57 51 37 53 25 108 92 66 88 107 139 124 119 119 122 132 123 175 177
87 98 60 52 56 21 25 19 9 23 38 63 87 102 119 154 170 145 111 89 78 77 68 71 65 71 94 127 124 118 169 175 111 207 190 155 147 149 158 165 169 154 140
78 58 43 33 32 24 40 30 53 74 78 81 100 125 160 164 154 134 119 117 117 108 123 116 124 114 126 107 129 167 209 260 275 185 222 141 159 140 135 137 118 110 99
83 54 45 40 31 32 36 74 64 55 82 146 155 197 222 199 181 160 136 119 115 114 110 119 122 126 124 164 157 140 159 171 222 260 215 157 70 105 104 115 129 120 101
82 76 23 25 80 110 103 108 98 130 161 168 181 190 185 176 153 136 114 102 99 102 103 111 114 115 126 155 173 195 162 145 117 132 158 119 114 49 81 68 82 68 73
63 43 95 96 105 121 111 140 155 172 165 129 122 129 146 144 135 114 110 102 97 99 94 106 121 97 88 77 93 69 131 171 156 156 133 124 99 71 80 66 49 58 41

GFSSE_con_3kmhel_045.txt.gz
Helicity
54 72 52 27 27 35 44 59 63 70 72 81 85 73 66 77 84 67 51 41 31 26 32 37 36 37 37 36 34 28 26 26 23 18 7 34 78 86 89 98 173 83 64
84 53 45 32 33 36 43 50 65 83 84 77 70 66 71 73 60 50 40 32 31 32 31 34 36 36 35 33 32 30 25 14 5 -12 -10 28 60 85 96 90 99 77 75
66 41 31 58 29 31 35 52 81 85 72 72 69 69 67 49 42 39 39 35 33 33 35 41 42 43 44 42 39 30 18 4 -24 -46 -41 17 112 72 70 66 68 72 67
54 39 3 53 25 32 47 62 71 68 71 71 65 59 39 34 36 43 45 35 31 32 34 34 34 35 33 34 34 32 22 -9 -26 -5 2 20 92 101 68 64 44 62 68
22 3 62 28 29 38 45 47 50 81 78 62 44 30 26 31 35 42 38 30 26 24 24 26 32 32 32 30 29 24 15 2 -13 -31 62 43 43 71 68 66 62 50 67
41 84 61 31 34 36 33 48 72 85 62 38 30 25 29 30 36 36 29 23 21 25 25 31 29 27 23 28 21 20 10 23 50 26 47 97 102 74 61 60 56 55 52
62 40 51 30 24 29 39 60 78 54 41 38 33 29 31 32 31 30 28 22 26 26 26 27 24 24 18 14 13 10 2 3 -0 29 24 109 55 66 66 62 62 57 60
27 65 59 48 48 52 62 72 62 50 47 38 30 30 33 32 29 27 31 35 35 33 28 25 25 23 23 21 13 4 -9 -10 8 24 11 54 39 42 52 55 52 58 66
58 28 23 51 52 67 61 61 51 42 30 24 23 31 27 22 25 33 44 45 40 35 29 24 23 28 33 29 22 11 -17 -28 -3 14 -4 75 42 40 36 34 36 40 47
9 -3 34 40 33 27 42 55 50 31 25 21 21 17 14 19 22 22 37 48 41 40 33 29 27 34 40 48 42 26 -3 7 4 23 55 47 43 39 45 45 40 38 32
27 61 45 25 40 38 33 44 39 30 17 16 10 -0 -5 15 8 10 67 52 48 47 48 43 41 35 33 34 48 30 11 57 13 50 66 59 52 36 33 41 45 46 44
18 38 46 48 51 36 45 25 22 16 1 -0 8 10 6 33 57 80 58 45 45 50 54 55 44 31 27 48 89 61 82 54 32 47 71 83 67 42 37 34 39 48 56
40 66 63 62 40 41 61 32 13 -1 12 19 27 26 57 23 34 24 57 44 39 52 40 57 60 81 108 85 108 90 72 53 54 61 76 121 101 55 39 43 54 64 75
30 45 59 61 77 70 34 28 43 19 21 17 56 35 43 35 49 35 48 83 42 69 75 86 96 92 80 77 74 62 57 47 51 49 47 105 119 96 61 65 83 97 105
39 61 63 57 57 62 65 63 76 53 50 53 46 58 58 49 56 55 87 62 87 97 105 130 146 126 102 62 93 62 59 62 50 50 81 140 136 121 81 89 99 116 125
62 74 62 61 69 89 116 102 77 91 65 59 52 48 60 85 74 65 75 104 125 179 201 159 163 108 106 95 92 93 76 66 60 71 95 88 123 86 73 84 102 118 124
50 62 68 85 96 106 110 141 124 109 94 63 17 42 93 97 128 169 185 211 221 190 159 140 107 116 112 104 93 89 108 95 101 120 129 91 153 122 92 96 114 120 114
75 70 93 101 138 196 241 267 229 167 23 -3 4 31 69 120 132 138 159 160 144 131 131 148 125 100 78 80 75 97 131 109 101 131 86 134 183 166 170 165 144 101 104
111 122 122 142 200 253 227 221 341 106 225 -27 50 55 47 92 92 99 130 147 131 138 135 113 83 66 60 58 75 113 109 76 119 93 94 208 148 120 204 127 165 124 93
122 141 112 168 274 172 192 204 172 91 45 55 35 41 26 56 92 99 111 127 94 94 101 106 72 71 68 69 81 108 63 117 87 139 69 142 156 171 149 204 90 66 169
175 211 220 252 152 142 88 51 38 23 65 49 47 62 71 59 60 95 130 120 106 108 84 64 69 55 66 83 104 103 113 59 165 132 73 132 211 164 166 140 99 145 111
211 217 169 115 73 46 48 41 32 56 58 59 63 53 75 96 115 121 117 111 120 81 93 108 87 89 111 139 137 131 156 151 129 200 260 187 156 185 141 129 122 134 113
139 101 77 69 76 40 77 83 86 87 88 73 77 76 127 119 136 128 139 131 134 123 139 143 138 128 154 131 105 151 164 197 220 173 172 193 217 200 122 68 88 104 75
108 70 48 74 51 80 76 104 110 99 99 132 145 182 155 169 170 173 181 170 156 145 135 140 132 153 107 132 132 146 223 249 264 252 170 130 98 55 78 87 101 91 82
103 74 84 70 94 133 99 120 87 82 154 151 153 201 147 157 133 141 126 138 128 113 117 111 108 137 167 178 181 175 154 121 103 97 178 98 88 74 82 90 85 59 50
104 119 119 80 153 143 123 123 137 198 152 155 152 129 107 148 131 147 174 178 162 119 124 140 129 126 159 107 123 96 68 83 101 67 81 78 75 71 59 59 57 71 70